TimeCET,TemperatureF,Dew PointF,Humidity,Sea Level PressureIn,VisibilityMPH,Wind Direction,Wind SpeedMPH,Gust SpeedMPH,PrecipitationIn,Events,Conditions,WindDirDegrees,DateUTC
12:00 AM,33.8,33.8,100,30.21,3.1,Calm,Calm,-,N/A,,Mist,0,2012-11-11 23:00:00
12:30 AM,33.8,32.0,93,30.21,6.2,SSW,2.3,-,N/A,,Unknown,210,2012-11-11 23:30:00
1:00 AM,34,33,95,30.25,5,SSW,1.2,,,,Clear,210,2012-11-12 00:00:00
1:00 AM,33.8,33.8,100,30.21,5.0,Variable,1.2,-,N/A,,Mostly Cloudy,0,2012-11-12 00:00:00
1:30 AM,33.8,33.8,100,30.21,-9999.0,South,2.3,-,N/A,,Mist,180,2012-11-12 00:30:00
2:00 AM,35.6,35.6,100,30.24,0.1,Variable,2.3,-,N/A,Fog,Fog,0,2012-11-12 01:00:00
2:30 AM,35.6,35.6,100,30.24,0.1,SSE,2.3,-,N/A,Fog,Fog,160,2012-11-12 01:30:00
3:00 AM,35.6,35.6,100,30.24,0.1,SE,2.3,-,N/A,Fog,Fog,140,2012-11-12 02:00:00
3:30 AM,35.6,35.6,100,30.24,0.1,SSE,2.3,-,N/A,Fog,Fog,150,2012-11-12 02:30:00
4:00 AM,35.6,35.6,100,30.24,0.1,South,2.3,-,N/A,Fog,Fog,170,2012-11-12 03:00:00
4:30 AM,33.8,32.0,93,30.24,0.1,Calm,Calm,-,N/A,Fog,Fog,0,2012-11-12 03:30:00
5:00 AM,32.0,30.2,93,30.24,0.1,SSE,1.2,-,N/A,Fog,Light Freezing Fog,150,2012-11-12 04:00:00
5:30 AM,33.8,33.8,100,30.27,0.1,SSE,2.3,-,N/A,Fog,Fog,160,2012-11-12 04:30:00
6:00 AM,33.8,33.8,100,30.27,0.1,SSE,2.3,-,N/A,Fog,Fog,150,2012-11-12 05:00:00
6:30 AM,33.8,33.8,100,30.27,0.1,SSE,2.3,-,N/A,Fog,Fog,160,2012-11-12 05:30:00
7:00 AM,34,34,100,30.31,,SSE,2.3,,,Fog,Heavy Fog,150,2012-11-12 06:00:00
7:00 AM,33.8,33.8,100,30.27,0.1,SSE,2.3,-,N/A,Fog,Fog,150,2012-11-12 06:00:00
7:30 AM,33.8,33.8,100,30.27,0.1,Variable,3.5,-,N/A,Fog,Fog,0,2012-11-12 06:30:00
8:00 AM,33.8,33.8,100,30.30,0.1,SSE,3.5,-,N/A,Fog,Fog,160,2012-11-12 07:00:00
8:30 AM,33.8,33.8,100,30.30,0.1,Variable,2.3,-,N/A,Fog,Fog,0,2012-11-12 07:30:00
9:00 AM,35.6,35.6,100,30.33,0.8,Variable,2.3,-,N/A,,Mist,0,2012-11-12 08:00:00
9:30 AM,35.6,35.6,100,30.33,0.7,Variable,2.3,-,N/A,Fog,Patches of Fog,0,2012-11-12 08:30:00
10:00 AM,37.4,37.4,100,30.33,-9999.0,SSE,4.6,-,N/A,Fog,Fog,160,2012-11-12 09:00:00
10:30 AM,37.4,37.4,100,30.36,0.1,SSE,4.6,-,N/A,Fog,Fog,160,2012-11-12 09:30:00
11:00 AM,39.2,39.2,100,30.36,0.1,SSE,3.5,-,N/A,Fog,Fog,160,2012-11-12 10:00:00
11:30 AM,39.2,39.2,100,30.36,0.2,SSE,4.6,-,N/A,Fog,Fog,150,2012-11-12 10:30:00
12:00 PM,41.0,41.0,100,30.36,1.1,SSE,4.6,-,N/A,,Mist,160,2012-11-12 11:00:00
12:30 PM,42.8,42.8,100,30.36,1.2,South,4.6,-,N/A,,Mist,170,2012-11-12 11:30:00
1:00 PM,44,44,97,30.38,,SSE,3.5,,,,Partly Cloudy,160,2012-11-12 12:00:00
1:00 PM,44.6,42.8,93,30.36,6.2,SSE,3.5,-,N/A,,Overcast,160,2012-11-12 12:00:00
1:30 PM,46.4,44.6,93,30.36,6.2,South,4.6,-,N/A,,Overcast,170,2012-11-12 12:30:00
2:00 PM,48.2,42.8,82,30.33,6.2,South,4.6,-,N/A,,Unknown,180,2012-11-12 13:00:00
2:30 PM,50.0,42.8,76,30.36,6.2,South,4.6,-,N/A,,Unknown,180,2012-11-12 13:30:00
3:00 PM,50.0,42.8,76,30.33,6.2,SSW,4.6,-,N/A,,Unknown,200,2012-11-12 14:00:00
3:30 PM,51.8,42.8,71,30.33,6.2,SW,4.6,-,N/A,,Unknown,220,2012-11-12 14:30:00
4:00 PM,48.2,41.0,76,30.36,6.2,SSW,4.6,-,N/A,,Unknown,210,2012-11-12 15:00:00
4:30 PM,46.4,42.8,87,30.36,6.2,SSW,3.5,-,N/A,,Unknown,200,2012-11-12 15:30:00
5:00 PM,46.4,42.8,87,30.36,6.2,South,2.3,-,N/A,,Unknown,180,2012-11-12 16:00:00
5:30 PM,44.6,41.0,87,30.36,6.2,South,2.3,-,N/A,,Unknown,190,2012-11-12 16:30:00
6:00 PM,44.6,41.0,87,30.36,6.2,South,2.3,-,N/A,,Unknown,180,2012-11-12 17:00:00
6:30 PM,44.6,42.8,93,30.36,6.2,SSE,2.3,-,N/A,,Unknown,160,2012-11-12 17:30:00
7:00 PM,44,42,89,30.40,7,SSE,1.2,,,,Clear,160,2012-11-12 18:00:00
7:00 PM,44.6,42.8,93,30.36,6.2,Calm,Calm,-,N/A,,Unknown,0,2012-11-12 18:00:00
7:30 PM,44.6,42.8,93,30.39,6.2,SE,3.5,-,N/A,,Unknown,140,2012-11-12 18:30:00
8:00 PM,44.6,42.8,93,30.39,6.2,SSE,2.3,-,N/A,,Unknown,160,2012-11-12 19:00:00
8:30 PM,44.6,42.8,93,30.36,6.2,SE,3.5,-,N/A,,Unknown,140,2012-11-12 19:30:00
9:00 PM,44.6,42.8,93,30.36,6.2,SSE,3.5,-,N/A,,Unknown,150,2012-11-12 20:00:00
9:30 PM,42.8,41.0,93,30.39,6.2,South,3.5,-,N/A,,Unknown,170,2012-11-12 20:30:00
10:00 PM,42.8,41.0,93,30.39,4.3,SE,2.3,-,N/A,,Unknown,140,2012-11-12 21:00:00
10:30 PM,42.8,41.0,93,30.39,-9999.0,SSE,3.5,-,N/A,,Mist,150,2012-11-12 21:30:00
11:00 PM,42.8,41.0,93,30.39,-9999.0,SSE,4.6,-,N/A,,Mist,160,2012-11-12 22:00:00
11:30 PM,39.2,39.2,100,30.39,0.1,South,3.5,-,N/A,Fog,Fog,170,2012-11-12 22:30:00